Location: Kitt Peak
(31.9639°N, 111.5992°W)
Time: 12:27:01
(UTC-07:00)

Tiangong 2 - Visible Passes

Search period start: 21 September 2017 00:00
Search period end: 01 October 2017 00:00
Orbit: 389 x 393 km, 42.8° (Epoch: 21 September)

Date Brightness Start Highest point End Pass type
(mag) Time Alt. Az. Time Alt. Az. Time Alt. Az.
21 Sep 1.4 19:02:23 10° WNW 19:05:33 64° SW 19:08:35 11° SE visible
22 Sep 3.9 19:43:03 10° WSW 19:44:43 13° SW 19:46:22 10° S visible
23 Sep 3.1 18:44:41 10° W 18:47:26 26° SW 18:50:10 10° SSE visible
